Weather History for Pian Rosa, Italy

Change the Weather History Date:

Saturday, September 14, 2013

  Actual Average Record
Temperature  
Mean Temperature 32 °F -  
Max Temperature 37 °F 32 °F 44 °F (2011)
Min Temperature 26 °F 24 °F 10 °F (1996)
Degree Days  
Heating Degree Days 34    
Moisture  
Dew Point 22 °F    
Average Humidity 68    
Maximum Humidity 93    
Minimum Humidity 31    
Precipitation  
Precipitation 0.00 in - - ()
Sea Level Pressure  
Sea Level Pressure 30.34 in    
Wind  
Wind Speed 14 mph ()    
Max Wind Speed 28 mph    
Max Gust Speed 28 mph    
Visibility 5.9 miles    
Events Fog , Snow    
Averages and records for this station are not official NWS values.
T = Trace of Precipitation, MM = Missing Value Source: Averaged Metar Reports

Daily Weather History Graph

Daily Weather History Graph

Search for Another Location

Airport:

Trip Planner

Search our weather history database for the weather conditions in past years. The results will help you decide how hot, cold, wet, or windy it might be!

Date:

Astronomy

Sep. 14, 2013 Rise Set
Actual Time 7:06 AM CEST 7:42 PM CEST
Civil Twilight 6:36 AM CEST 8:12 PM CEST
Nautical Twilight 6:00 AM CEST 8:47 PM CEST
Astronomical Twilight 5:23 AM CEST 9:24 PM CEST
Moon 4:22 PM CEST (9/14) 1:06 AM CEST (9/14)
Length of Visible Light 13h 36m
Length of Day
12h 36m
Waxing Gibbous, 69% of the Moon is Illuminated
Sep 14
Waxing Gibbous
Sep 19
Full
Sep 27
Last Quarter
Oct 5
New
Oct 12
First Quarter

Hourly Weather History & Observations

Time (CEST) Temp. Windchill Dew Point Humidity Pressure Visibility Wind Dir Wind Speed Gust Speed Precip Events Conditions
12:55 AM 26.6 °F 10.8 °F 17.6 °F 69% 30.36 in 6.2 mi NE 27.6 mph - N/A   Scattered Clouds
1:55 AM 26.6 °F 11.1 °F 23.0 °F 86% 30.36 in - NE 26.5 mph - N/A   Clear
2:00 AM 26 °F - 23 °F 83%  in 6 mi NE 26.5 mph - -  
2:55 AM 26.6 °F 11.4 °F 23.0 °F 86% 30.36 in - ENE 25.3 mph - N/A   Clear
3:55 AM 26.6 °F 13.1 °F 23.0 °F 86% 30.36 in - ENE 19.6 mph - N/A   Clear
4:55 AM 28.4 °F 15.1 °F 21.2 °F 74% 30.36 in - ENE 20.7 mph - N/A   Clear
5:00 AM 29 °F - 22 °F 65%  in 6 mi ENE 20.7 mph - -  
5:55 AM 26.6 °F 13.4 °F 19.4 °F 74% 30.36 in - ENE 18.4 mph - N/A   Clear
6:55 AM 28.4 °F 16.2 °F 19.4 °F 69% 30.36 in 6.2 mi ENE 17.3 mph - N/A   Partly Cloudy
7:55 AM 30.2 °F 19.3 °F 17.6 °F 60% 30.36 in 6.2 mi ENE 15.0 mph - N/A   Partly Cloudy
8:00 AM 30 °F - 18 °F 47%  in 31 mi ENE 15.0 mph - -   Scattered Clouds
8:55 AM 32.0 °F 21.2 °F 19.4 °F 60% 30.36 in 6.2 mi ENE 16.1 mph - N/A   Partly Cloudy
9:55 AM 32.0 °F 21.6 °F 17.6 °F 55% 30.36 in - NE 15.0 mph - N/A   Clear
10:55 AM 32.0 °F 27.5 °F 12.2 °F 44% 30.39 in 6.2 mi NNE 4.6 mph - N/A   Partly Cloudy
11:00 AM 32 °F - 13 °F 31%  in 37 mi NNE 4.6 mph - -   Scattered Clouds
11:55 AM 33.8 °F - 8.6 °F 35% 30.39 in 6.2 mi Variable 2.3 mph - N/A   Partly Cloudy
12:55 PM 35.6 °F - 19.4 °F 52% 30.36 in 6.2 mi Calm Calm - N/A   Partly Cloudy
1:55 PM 37.4 °F 33.8 °F 23.0 °F 56% 30.36 in 6.2 mi SSW 4.6 mph - N/A   Mostly Cloudy
2:00 PM 37 °F - 23 °F 45%  in 31 mi SSW 4.6 mph - -   Mostly Cloudy
2:55 PM 37.4 °F 34.9 °F 24.8 °F 60% 30.36 in 6.2 mi Variable 3.5 mph - N/A   Scattered Clouds
3:55 PM 35.6 °F - 24.8 °F 65% 30.36 in 6.2 mi Variable 2.3 mph - N/A   Scattered Clouds
4:55 PM 35.6 °F 32.8 °F 24.8 °F 65% 30.36 in 6.2 mi Variable 3.5 mph - N/A   Mostly Cloudy
5:00 PM 36 °F - 25 °F 53%  in 12 mi 3.5 mph - -   Mostly Cloudy
5:55 PM 35.6 °F 27.5 °F 26.6 °F 70% 30.33 in 6.2 mi SW 11.5 mph - N/A   Mostly Cloudy
6:55 PM 32.0 °F 22.5 °F 28.4 °F 87% 30.30 in 6.2 mi SW 12.7 mph 24.2 mph N/A   Mostly Cloudy
7:55 PM 32.0 °F 23.6 °F 26.6 °F 80% 30.30 in 6.2 mi SW 10.4 mph 21.9 mph N/A   Mostly Cloudy
8:00 PM 32 °F - 27 °F 75%  in 12 mi SW 10.4 mph - -   Mostly Cloudy
8:55 PM 32.0 °F 23.0 °F 26.6 °F 80% 30.30 in 6.2 mi SW 11.5 mph 27.6 mph N/A   Mostly Cloudy
9:55 PM 30.2 °F 19.8 °F 26.6 °F 86% 30.30 in 6.2 mi SW 13.8 mph 25.3 mph N/A   Mostly Cloudy
10:55 PM 30.2 °F 20.8 °F 28.4 °F 93% 30.27 in 0.1 mi SW 11.5 mph - N/A Fog , Snow Light Snow
11:00 PM 31 °F - 29 °F 87%  in 0 mi SW 11.5 mph - - Snow Light Snow
11:55 PM 30.2 °F 20.8 °F 28.4 °F 93% 30.27 in 0.1 mi SW 11.5 mph - N/A Fog , Snow Light Snow